TRANSAT DEB, 57001

Orbit data source: Space-Track

TRANSAT DEB, 57001 is space debris in LEO originally from a launch on Fri, 28 Oct 1977 UTC launched from the Air Force Western Test Range (AFWTR). Debris objects in space refer to the collection of defunct objects orbiting the Earth. Examples of debris include non-operational satellites, rocket bodies, and fragments generated from explosions, collisions, or faulty payload assembly.

Loading next visibility...
Identifier
57001, 1977-106D
Orbit
LEO
Country
Flag of USUS
Related business
Manufacturer
Unknown
Mission
Spacecraft
Bus & Motor
Unknown
Mass
Unknown
Launch date (UTC)
1977-10-28 (49 years ago)
Launch vehicle
Unknown
Launch site
Air Force Western Test Range (AFWTR)
Object type
Payload
Rocket body
Debris
Shape & HBR
Unknown shape, 0.2 m
Radar Cross Section
Medium (>0.1 m² and <1 m²)

Expand to show TLE details & history
Last TLE update: 2 days ago

TLE from 2 days ago
0 TRANSAT DEB
1 57001U 77106D   26171.25267096  .00000474  00000-0  70926-3 0  9990
2 57001  89.6477  71.9359 0026729   7.2908 352.8627 13.51606494292861
Epoch: 2026-06-20T06:03Z
TLE epoch observation values (Epoch: 2026-06-20T06:03:50.770Z)
Latitude
-0.00005°
Longitude
72.5044°
Altitude
1,049.562 km
Speed
7.337 km/s
True Right ascension
04h 47m 44s
True Declination
0° 00' 00"
Sunlit
Object was in daylight at epoch
Visualization orbit readout
Latitude
Unknown
Longitude
Unknown
Altitude
Unknown
Speed
Unknown
Apparent Right ascension
Unknown
Apparent Declination
Unknown
Sunlit
N/A
Visualization observer readout
Local Sidereal Time
21:32:24
Azimuth
Unknown
Elevation
Unknown
Doppler factor
Unknown
Orbital elements
Apogee altitude
1,083.292 km
Perigee altitude
1,043.511 km
Semi-major axis
7,441.539 km
Eccentricity
0.00267
Inclination
89.6477°
RAAN
71.9359°
Arg. of periapsis
7.2908°
True anomaly
352.82452°
Mean anomaly
352.8627°
Eccentric anomaly
352.84362°
Mean motion
3.38103 °/min
Orbital period
106.48 mins
BSTAR
0.00070926
Loading maneuver chart data...
Computing Atmospheric mass density...
Loading historical data...
Loading historical data...
Loading historical data...
Loading historical data...
Loading historical data...
Loading historical data...
Loading historical data...
Other satellites on launch #106 in the year 1977 (1977-10-28 UTC)

Documentation

Showing up to 5 results
|